Flag Weather past 2 weeks in Rotenburg (Wümme), Lower Saxony, Germany

Now
47 °F

Light rain. Low clouds.


Feels Like: 43 °F
Forecast: 39 / 47 °F
Wind: 8 mph from Northwest

Location: Bremen

Current Time: Nov 24, 2014 at 8:08:15 AM

Latest Report: Nov 24, 2014 at 7:00 AM


Visibility: 13 mi

Pressure: 30.08 "Hg

Humidity: 91%

Dew point: 44 °F

Location of Rotenburg (Wümme)Location

Historic Weather in Rotenburg (Wümme) — Graph

°F

Rotenburg (Wümme) temperature yesterday

Maximum temperature yesterday: 54 °F (at 3:00 PM)
Minimum temperature yesterday: 41 °F (at 2:00 AM)
Average temperature yesterday: 46 °F

Past Weeks' High & Low Weather Summary

 TemperatureHumidityPressure
High54 °F (Nov 14, 3:00 PM)100% (Nov 11, 12:00 AM)30.39 "Hg (Nov 11, 12:00 AM)
Low31 °F (Nov 21, 7:00 AM)71% (Nov 9, 2:00 PM)29.53 "Hg (Nov 16, 3:00 PM)
Average46 °F90%29.92 "Hg
* Reported Nov 9 7:00 AM — Nov 24 7:00 AM, Rotenburg (Wümme), Weather by CustomWeather, © 2014

Note: Actual official high and low records may vary slightly from our data, if they occured in-between our weather recording intervals... More about our weather records

Advertising

Rotenburg (Wümme) weather history for previous 24 hours

 ConditionsComfort  
Time TempWeatherWind HumidityBarometerVisibility
7:00 AM
Nov 24
47 °FLight rain. Low clouds.8 mph91%30.08 "Hg12 mi
6:00 AM48 °FLight rain. Low clouds.8 mph95%30.04 "Hg9 mi
5:00 AM49 °FRain. Low clouds.6 mph97%30.01 "Hg6 mi
3:00 AM51 °FOvercast.5 mph81%29.95 "Hg12 mi
2:00 AM51 °FOvercast.5 mph77%29.94 "Hg12 mi
1:00 AM49 °FOvercast.2 mph83%29.95 "Hg12 mi
12:00 AM49 °FOvercast.5 mph80%29.95 "Hg12 mi
11:00 PM
Nov 23
50 °FLight rain. Overcast.5 mph79%29.95 "Hg12 mi
9:00 PM49 °FPassing clouds.5 mph81%29.97 "Hg19 mi
8:00 PM49 °FPassing clouds.5 mph81%29.97 "Hg19 mi
7:00 PM50 °FOvercast.5 mph80%29.98 "Hg19 mi
6:00 PM49 °FPassing clouds.5 mph84%29.99 "Hg19 mi
5:00 PM51 °FOvercast.7 mph80%29.99 "Hg19 mi
3:00 PM54 °FOvercast.6 mph78%30.02 "Hg19 mi
2:00 PM52 °FPartly sunny.5 mph82%30.06 "Hg16 mi
1:00 PM50 °FPartly sunny.3 mph85%30.08 "Hg11 mi
12:00 PM49 °FPartly sunny.3 mph87%30.10 "Hg9 mi
11:00 AM46 °FLight rain. Overcast.5 mph92%30.11 "Hg6 mi
10:00 AM44 °FOvercast.3 mph94%30.11 "Hg4 mi
9:00 AM43 °FFog.3 mph96%30.11 "Hg4 mi
8:00 AM42 °FFog.3 mph96%30.10 "Hg3 mi
Weather by CustomWeather, © 2014

See weather overviewHow to use our weather pages